Location: Unspecified
(51.0000°N, 12.0000°E)
Time: 08:45:52
(UTC+01:00)

ISS - Visible Passes

Search period start: 26 November 2020 00:00
Search period end: 06 December 2020 00:00
Orbit: 418 x 421 km, 51.6° (Epoch: 26 November)

Date Brightness Start Highest point End Pass type
(mag) Time Alt. Az. Time Alt. Az. Time Alt. Az.
26 Nov -3.9 18:11:37 10° WSW 18:14:59 82° SSE 18:15:21 68° E visible
27 Nov -3.6 17:24:11 10° WSW 17:27:31 66° SSE 17:29:44 19° E visible
27 Nov -1.7 19:00:58 10° W 19:02:42 28° W 19:02:42 28° W visible
28 Nov -3.9 18:13:27 10° W 18:16:50 79° N 18:17:04 73° NE visible
29 Nov -3.8 17:25:55 10° W 17:29:18 86° N 17:31:26 21° E visible
29 Nov -1.5 19:02:48 10° W 19:04:23 26° W 19:04:23 26° W visible
30 Nov -3.9 18:15:16 10° W 18:18:39 81° N 18:18:45 79° NE visible
01 Dec -3.8 17:27:43 10° W 17:31:06 77° N 17:33:10 22° E visible
01 Dec -1.4 19:04:34 10° W 19:06:07 25° W 19:06:07 25° W visible
02 Dec -3.8 18:17:01 10° WNW 18:20:23 77° SSW 18:20:33 74° SSE visible
03 Dec -3.8 17:29:27 10° W 17:32:50 90° N 17:35:04 20° E visible
03 Dec -1.3 19:06:23 10° W 19:08:02 23° WSW 19:08:02 23° WSW visible
04 Dec -3.8 16:41:53 10° W 16:45:15 81° N 16:48:38 10° E visible
04 Dec -2.9 18:18:44 10° W 18:21:59 45° SSW 18:22:38 39° S visible
05 Dec -3.3 17:31:08 10° W 17:34:28 60° SSW 17:37:21 13° ESE visible
05 Dec -1.0 19:08:34 10° W 19:10:20 16° SW 19:10:20 16° SW visible
